sat.trackr.live / text

‹ back to catalog

KENT RIDGE 1

NORAD 41167 · 2015-077B

PAYLOAD ACTIVE UNKNOWN

§ Identity

Operator
Country
SING
Launch date
2015-12-16
Launch site
SRILR
Launch vehicle
Mass (kg)
RCS (m²)
0.20

Purposes: earth_obs

External: N2YO · Heavens-Above · Gunter

§ Orbital elements

Epoch: 2026-09-15T18:45:20.932992Z

Period
94.51 min
Inclination
14.9803°
Eccentricity
0.0008149
Mean motion
15.23598429 rev/d
Perigee alt
489.4 km
Apogee alt
500.6 km
Semi-major
6,873.1 km
B*
1.1591e-4
RAAN
311.9971°
Arg perigee
78.4710°
Mean anomaly
281.6527°
Rev number
59,493

§ Raw data

KENT RIDGE 11 41167U 15077B   26258.78149228  .00003626  00000+0  11591-3 0  99992 41167  14.9803 311.9971 0008149  78.4710 281.6527 15.23598429594935

JSON: /api/v1/satellites/41167 · /tle

For live sub-satellite position, see the globe view (requires WebGL).

§ Visibility from observer

Set your observer location to see the next 7 days of passes ≥ 10°. The values pass through the URL so the page stays shareable.

No JS? Fill the form by hand. The geolocation button needs JavaScript.